National Oceanic Atmosphere Administration National Weather Service Headquarters National Weather Service Headquarters
NOAA logo WFO Anchorage Scalable transition graphic NWS logo
Transition from title bar to navgation bar   Aviation Weather 04 AKDT 
blankspace Home   |   Mobile   |   Social Media   |   Mesonet   |   Surface Map   |   Radar   |   Submit Storm Reports =12 GMT 

LocalForecast by City, St or Zip Code

spacer

Forecasts/Products
  Public
  Forecast Discussion
    - With Glossary
  Aviation
  Marine
  Hydrology(RFC)
  Rivers & Lakes AHPS
  Ice Desk
  TV Weather
  Fire Weather
  Avalanche
  Travel 511
  Graphical
  xml logo RSS Feeds
  Marine FTPMail

spacer

Data
  Mesonet
  Model Graphics
  Local Model
  Observations
  Marine Obs
  Satellite/Radar
  Vent Factor
  Soaring Index
  Weather Links

spacer

Climate
  PAFC Climate
  Interactive Climate
  PAFC Records
  Local
  National
  More

spacer

Outreach
  About Us
  Community Outreach
  Kids' Page
  Tour/Speaker Request
  Weather Classroom
  Social Media

spacer

Reports
  COOP Observers
  Local Storm Reports
  Spotter Page
  Submit a Storm Report

spacer

Miscellaneous
  Archived Alaska Weather Stories
  Student Career Opportunities
  Research Papers

spacer

Print Friendly/
Low Bandwidth

  Public Forecasts
  Marine Forecasts

spacer

Contact Us
  mailto pafcweb

spacer

Facebook Follow the National Weather Service in Alaska on Twitter
USA.gov is the U.S. government's official web portal to all federal, state and local government web resources and services.


 ICAO ID:   AAWU Graphics

Internet access to TAFs and METAR observations is for planning purposes only. We can not guarantee the timeliness of internet products. Before flying please get a formal pilot briefing (1-800-992-7433) and ALWAYS file a Flight Plan!Pilot briefings are provided to licensed aircraft pilots, ONLY! Others may not use the above number to obtain weather information.

Check out the Key to TAFs and METARs for help with decoding the information.

A 12 hour summary of TAFs can be found here.

PANC TAF
PANC 021142Z 0212/0318  VRB05KT P6SM FEW130 SCT200
     FM030500 36010KT P6SM SCT120 BKN200=


METAR PANC 021153Z 00000KT 10SM CLR 03/M02 A3010 RMK AO2 SLP196
     T00281017 10039 20000 58016 $=
METAR PANC 021153Z 00000KT 10SM CLR 03/M02 A3010=
METAR PANC 021053Z 00000KT 10SM FEW130 SCT200 03/M02 A3012 RMK AO2
     SLP203 T00281017 $=
METAR PANC 021053Z 00000KT 10SM FEW130 SCT200 03/M02 A3012=
METAR PANC 020953Z 00000KT 10SM FEW100 SCT200 01/M03 A3014 RMK AO2
     SLP207 T00061028 $=
METAR PANC 020953Z 00000KT 10SM FEW100 SCT200 01/M03 A3014=
METAR PANC 020853Z 00000KT 10SM FEW200 02/M04 A3015 RMK AO2 SLP212
     T00171039 401061017 58010 $=
METAR PANC 020853Z 00000KT 10SM FEW200 02/M04 A3015=


National Weather Service
Anchorage Forecast Office
6930 Sand Lake Road
Anchorage, Ak 99502
(907) 266-5105 M-F/7-5pm
About Us
Career Opportunities
Glossary
Disclaimer
Privacy Policy
Credits
Alaska Weather Information Line:
1-800-472-0391